Location: Baia Mare
(47.6567°N, 23.5850°E)
Time: 14:02:02
(UTC+02:00)

ISS - Pass Details

Date: 29 December 2018
Orbit: 401 x 408 km, 51.6° (Epoch: 16 December)

Event Time Altitude Azimuth Distance (km) Brightness Sun altitude
Exits shadow 06:49:38 23° 266° (W) 908 -2.6 -13.4°
Maximum altitude 06:51:28 63° 342° (NNW) 459 -3.8 -13.1°
Drops below altitude 10° 06:54:44 10° 64° (ENE) 1,467 -0.4 -12.6°
Sets 06:56:50 0° 68° (ENE) 2,327 0.8 -12.3°
